(242520) = 2005 AS7

Discovered at Catalina on 2005-01-06 by CSS.

Orbit

Orbit type: Main Belt

Note: WebGL enabled browser required.

epoch2024-03-31.0
epoch JD2460400.5
perihelion date2024-01-09.20432
perihelion JD2460318.70432
argument of perihelion (°)205.49585
ascending node (°)323.86122
inclination (°)8.70784
eccentricity0.1472779
perihelion distance (AU)2.3694460
Tisserand w.r.t. Jupiter3.3
ΔV w.r.t. Earth (km/sec)10.0
semimajor axis (AU)2.7786849
mean anomaly (°)17.40506
mean daily motion (°/day)0.21278700
aphelion distance (AU)3.188
period (years)4.63
P-vector [x]-0.97987113
P-vector [y]0.19904633
P-vector [z]0.01526819
Q-vector [x]-0.17855191
Q-vector [y]-0.83963249
Q-vector [z]-0.51296833
absolute magnitude16.14
phase slope0.15
uncertainty0
referenceE2024-H18
observations used334
oppositions14
arc length (days)7504
first opposition used2003
last opposition used2024
residual rms (arc-secs)0.71
perturbers coarse indicatorM-v
perturbers precise indicator003Ek
first observation date used2003-09-30.0
last observation date used2024-04-16.0
computer nameMPCLINUX
JD of orbit computation2456639.512752
perihelion JD uncertainty (days)1.4063E-04
argument of perihelion uncertainty (°)5.4494E-05
ascending node uncertainty (°)4.6331E-05
inclination uncertainty (°)8.6637E-06
eccentricity uncertainty 1.1029E-07
perihelion distance uncertainty (AU)3.0788E-07
Minimum Orbit Intersection Distances (in AU)
for orbit epoch: 2460400.5, reference: E2024-H18
Mercury1.98617
Venus1.65765
Earth1.38016
Mars0.72235
Jupiter1.81657
Saturn6.27528
Uranus16.0716
Neptune26.7274

Observations

328 total observations over interval: 2003 09 30.43775 – 2024 03 19.465881
These data are available for download (format description).

Date (UT) J2000 RA J2000 Dec Magn Location Ref
2003 09 30.43775 01 46 44.88 +22 37 40.3 21.2 V 691 – Steward Observatory, Kitt Peak-Spacewatch MPS 228998
2003 09 30.46385 01 46 43.66 +22 37 38.4 21.4 V 691 – Steward Observatory, Kitt Peak-Spacewatch MPS 228998
2003 09 30.49028 01 46 42.44 +22 37 36.9 21.6 V 691 – Steward Observatory, Kitt Peak-Spacewatch MPS 228998
2005 01 06.39017 09 11 52.36 +21 22 21.9 19.3 R 703 – Catalina Sky Survey MPS 124161
2005 01 06.39769 09 11 51.99 +21 22 22.7 19.1 R 703 – Catalina Sky Survey MPS 124161
2005 01 06.40519 09 11 51.70 +21 22 23.5 19.2 R 703 – Catalina Sky Survey MPS 124161
2005 01 06.41274 09 11 51.39 +21 22 23.4 18.9 R 703 – Catalina Sky Survey MPS 124161
2005 01 07.33855 09 11 13.64 +21 22 49.1 19.6   704 – Lincoln Laboratory ETS, New Mexico MPS 124161
2005 01 07.35188 09 11 13.11 +21 22 49.9 20.1   704 – Lincoln Laboratory ETS, New Mexico MPS 124161
2005 01 07.36519 09 11 12.51 +21 22 50.6 20.2   704 – Lincoln Laboratory ETS, New Mexico MPS 124161
2005 01 07.37853 09 11 11.98 +21 22 49.5 19.9   704 – Lincoln Laboratory ETS, New Mexico MPS 124161
2005 01 15.37295 09 04 50.96 +21 27 19.8 19.4 V 691 – Steward Observatory, Kitt Peak-Spacewatch MPS 124798
2005 01 15.39864 09 04 49.55 +21 27 20.7 19.5 V 691 – Steward Observatory, Kitt Peak-Spacewatch MPS 124798
2005 01 15.42496 09 04 48.05 +21 27 22.3 20.1 V 691 – Steward Observatory, Kitt Peak-Spacewatch MPS 124798
2005 01 16.36068 09 03 57.97 +21 27 54.5 20.2   704 – Lincoln Laboratory ETS, New Mexico MPS 124798
2005 01 16.37372 09 03 57.25 +21 27 55.6 19.6   704 – Lincoln Laboratory ETS, New Mexico MPS 124798
2005 01 16.38722 09 03 56.52 +21 27 56.4 19.8   704 – Lincoln Laboratory ETS, New Mexico MPS 124798
2005 01 16.40024 09 03 55.71 +21 27 55.9 19.7   704 – Lincoln Laboratory ETS, New Mexico MPS 124798
2005 01 18.43091 09 02 03.25 +21 29 04.4 19.6 V 691 – Steward Observatory, Kitt Peak-Spacewatch MPS 124798
2005 01 18.45833 09 02 01.64 +21 29 05.5 19.6 V 691 – Steward Observatory, Kitt Peak-Spacewatch MPS 124798
2005 01 18.48952 09 01 59.85 +21 29 05.9 19.8 V 691 – Steward Observatory, Kitt Peak-Spacewatch MPS 124798
2005 01 19.34887 09 01 11.21 +21 29 33.2 19.8   704 – Lincoln Laboratory ETS, New Mexico MPS 124798
2005 01 19.36212 09 01 10.39 +21 29 36.4 19.7   704 – Lincoln Laboratory ETS, New Mexico MPS 124798
2005 01 19.37550 09 01 09.63 +21 29 34.1 20.4   704 – Lincoln Laboratory ETS, New Mexico MPS 124798
2005 01 19.38925 09 01 08.77 +21 29 35.6 19.5   704 – Lincoln Laboratory ETS, New Mexico MPS 124798
2005 01 19.40504 09 01 07.85 +21 29 35.3 19.4   704 – Lincoln Laboratory ETS, New Mexico MPS 124798
2005 02 01.27478 08 48 00.43 +21 32 38.1 19.1 R 703 – Catalina Sky Survey MPS 125755
2005 02 01.28274 08 47 59.89 +21 32 38.4 18.6 R 703 – Catalina Sky Survey MPS 125755
2005 02 01.29068 08 47 59.39 +21 32 38.7 18.6 R 703 – Catalina Sky Survey MPS 125755
2005 02 01.29863 08 47 58.86 +21 32 37.9 18.7 R 703 – Catalina Sky Survey MPS 125755
2005 02 03.29850 08 45 53.55 +21 32 09.6 18.5   704 – Lincoln Laboratory ETS, New Mexico MPS 125755
2005 02 03.31595 08 45 52.42 +21 32 09.3 18.9   704 – Lincoln Laboratory ETS, New Mexico MPS 125755
2005 02 03.32847 08 45 51.64 +21 32 08.9 19.3   704 – Lincoln Laboratory ETS, New Mexico MPS 125755
2005 02 03.34092 08 45 50.80 +21 32 09.0 19.3   704 – Lincoln Laboratory ETS, New Mexico MPS 125755
2005 02 03.35397 08 45 49.97 +21 32 08.8 18.9   704 – Lincoln Laboratory ETS, New Mexico MPS 125755
2005 02 13.14882 08 36 05.62 +21 24 47.4 18.7 R H06 – iTelescope Observatory, Mayhill MPS 126794
2005 02 13.16101 08 36 04.94 +21 24 46.9 19.2 R H06 – iTelescope Observatory, Mayhill MPS 126794
2005 02 14.28805 08 35 02.64 +21 23 23.8 19.7   704 – Lincoln Laboratory ETS, New Mexico MPS 126794
2005 02 14.30029 08 35 02.03 +21 23 21.6 19.8   704 – Lincoln Laboratory ETS, New Mexico MPS 126794
2005 02 14.31304 08 35 01.31 +21 23 20.7 20.0   704 – Lincoln Laboratory ETS, New Mexico MPS 126794
2005 02 14.32526 08 35 00.57 +21 23 20.1 19.6   704 – Lincoln Laboratory ETS, New Mexico MPS 126794
2005 02 14.33770 08 34 59.86 +21 23 19.9 19.7   704 – Lincoln Laboratory ETS, New Mexico MPS 126794
2005 03 02.19234 08 23 43.08 +20 50 39.9 19.4 R 703 – Catalina Sky Survey MPS 127210
2005 03 02.20086 08 23 42.83 +20 50 38.0 19.6 R 703 – Catalina Sky Survey MPS 127210
2005 03 02.20933 08 23 42.54 +20 50 36.9 18.9 R 703 – Catalina Sky Survey MPS 127210
2005 03 02.21779 08 23 42.26 +20 50 34.7 19.3 R 703 – Catalina Sky Survey MPS 127210
2007 09 10.16673 22 45 49.58 -03 17 41.0 20.5 V 691 – Steward Observatory, Kitt Peak-Spacewatch MPS 228998
2007 09 10.18430 22 45 48.73 -03 17 44.9 19.9 V 691 – Steward Observatory, Kitt Peak-Spacewatch MPS 228998
2007 09 10.19952 22 45 47.88 -03 17 46.6 20.0 V 691 – Steward Observatory, Kitt Peak-Spacewatch MPS 228998
2007 10 10.23583 22 25 43.60 -04 39 10.4 20.9 V G96 – Mt. Lemmon Survey MPS 228998
2007 10 10.24582 22 25 43.32 -04 39 11.5 21.2 V G96 – Mt. Lemmon Survey MPS 228998
2007 10 10.25182 22 25 43.21 -04 39 12.2 20.6 V G96 – Mt. Lemmon Survey MPS 228998
2007 10 10.25755 22 25 43.06 -04 39 12.9 20.9 V G96 – Mt. Lemmon Survey MPS 228998
2008 10 22.35718 03 59 08.49 +33 11 03.2 20.6 V 691 – Steward Observatory, Kitt Peak-Spacewatch MPS 260598
2008 10 22.37494 03 59 07.77 +33 11 04.6 20.6 V 691 – Steward Observatory, Kitt Peak-Spacewatch MPS 260598
2008 10 22.39362 03 59 07.05 +33 11 05.9 20.8 V 691 – Steward Observatory, Kitt Peak-Spacewatch MPS 260598
2010 02 12.34519 12 17 31.31 -08 20 53.8 19.5   704 – Lincoln Laboratory ETS, New Mexico MPS 313160
2010 02 12.37008 12 17 30.75 -08 21 00.3 19.4   704 – Lincoln Laboratory ETS, New Mexico MPS 313160
2010 02 12.40363 12 17 30.18 -08 21 09.0 19.2   704 – Lincoln Laboratory ETS, New Mexico MPS 313160
2010 03 13.37080 11 58 39.46 -09 06 10.9 19.2 V 703 – Catalina Sky Survey MPS 317899
2010 03 13.37782 11 58 39.10 -09 06 10.6 18.9 V 703 – Catalina Sky Survey MPS 317899
2010 03 13.38483 11 58 38.71 -09 06 10.4 19.1 V 703 – Catalina Sky Survey MPS 317899
2010 03 13.39177 11 58 38.31 -09 06 09.9 19.4 V 703 – Catalina Sky Survey MPS 317899
2010 03 20.61110 11 51 58.21 -08 55 20.2 18.8 V E12 – Siding Spring Survey MPS 319309
2010 03 20.62596 11 51 57.42 -08 55 19.4 18.9 V E12 – Siding Spring Survey MPS 319309
2010 03 20.64087 11 51 56.59 -08 55 17.4 18.7 V E12 – Siding Spring Survey MPS 319309
2010 03 20.65581 11 51 55.65 -08 55 15.9 18.8 V E12 – Siding Spring Survey MPS 319309
2010 04 05.30153 11 38 19.96 -08 14 49.8 18.9 V 703 – Catalina Sky Survey MPS 320634
2010 04 05.30784 11 38 19.68 -08 14 49.4 19.4 V 703 – Catalina Sky Survey MPS 320634
2010 04 05.31422 11 38 19.42 -08 14 48.9 19.0 V 703 – Catalina Sky Survey MPS 320634
2010 04 05.32061 11 38 19.06 -08 14 47.4 18.9 V 703 – Catalina Sky Survey MPS 320634
2010 04 14.26472 11 32 20.86 -07 48 43.2 19.6 V 703 – Catalina Sky Survey MPS 322207
2010 04 14.27285 11 32 20.54 -07 48 41.0 20.2 V 703 – Catalina Sky Survey MPS 322207
2010 04 14.28100 11 32 20.32 -07 48 38.5 19.3 V 703 – Catalina Sky Survey MPS 322207
2010 04 14.28907 11 32 20.04 -07 48 38.2 19.6 V 703 – Catalina Sky Survey MPS 322207
2010 06 15.630150 11 48 18.03 -08 23 17.9   C51 – WISE MPS 333537
2010 06 15.762454 11 48 25.50 -08 23 52.1   C51 – WISE MPS 333537
2010 06 15.894758 11 48 33.024 -08 24 25.88   C51 – WISE MPS 903694
2010 06 16.027061 11 48 40.48 -08 25 01.7   C51 – WISE MPS 333537
2010 06 16.093150 11 48 44.23 -08 25 18.8   C51 – WISE MPS 333537
2010 06 16.159366 11 48 48.03 -08 25 36.2   C51 – WISE MPS 333537
2010 06 16.225454 11 48 51.81 -08 25 52.8   C51 – WISE MPS 333537
2010 06 16.291669 11 48 55.54 -08 26 10.8   C51 – WISE MPS 333537
2010 06 16.357758 11 48 59.30 -08 26 28.6   C51 – WISE MPS 333537
2010 06 16.423846 11 49 03.09 -08 26 46.0   C51 – WISE MPS 333537
2010 06 16.423973 11 49 03.08 -08 26 45.9   C51 – WISE MPS 333537
2010 06 16.490061 11 49 06.87 -08 27 03.5   C51 – WISE MPS 333538
2010 06 16.622366 11 49 14.40 -08 27 38.3   C51 – WISE MPS 333538
2010 06 16.754669 11 49 22.02 -08 28 13.8   C51 – WISE MPS 333538
2010 06 16.886973 11 49 29.50 -08 28 51.8   C51 – WISE MPS 333538
2010 06 17.019277 11 49 37.25 -08 29 24.3   C51 – WISE MPS 333538
